P/2010 LH155

Japanese version
Home page
Updated on April 26, 2025

---------------------------------------------------------------------

* Profile

Discovery Date June 14, 2010
Magnitude
Discoverer Wide Field Infrared Survey Explorer (NASA)

* Orbital Elements

                    Epoch = 2010 Feb. 13.0 TT
     T = 2010 Feb. 18.00806 TT        Peri. = 304.76196
     e = 0.3847170                    Node  = 222.87593 2000.0
     q = 2.3859299 AU                 Incl. =   8.33704
       a =  3.8777762 AU   n = 0.12907138   P =   7.64 years

* Magnitudes Graph

        H = 17.0  G = 0.15

---------------------------------------------------------------------

The orbital elements are printed on CBET 5540.
The magnitudes graphs are made with Comet for Windows.

---------------------------------------------------------------------

Copyright(C) Seiichi Yoshida (comet@aerith.net). All rights reserved.